This demonstration page uses our WeatherBlox Daily Observations layout. Learn more.

Left ArrowRight Arrow

39.51506, -84.39828

Hourly Observations for April 4, 2020

Temp ( °F °C ) Dew Point ( °F °C ) Humidity (%) Winds ( mph kmh ) Pressure ( in mb ) Visibility ( mi km ) Precip ( " mm )
12:15 am 00:15 Clear 46 8 43 6.1 88 88 NNE 3 6 30.05 1018 7 11.26538 0 0
12:35 am 00:35 Clear 46 7.5 43 6.3 92 92 Calm 30.06 1018 10 16.0934 0 0
12:55 am 00:55 Clear 45 7.1 42 5.7 91 91 Calm 30.06 1018 10 16.0934 0 0
1:15 am 01:15 Clear 46 7.6 43 6 90 90 Calm 30.05 1017 10 16.0934 0 0
1:35 am 01:35 Clear 45 7.2 42 5.6 90 90 Calm 30.05 1017 10 16.0934 0 0
1:55 am 01:55 Clear 44 6.4 41 5.1 92 92 Calm 30.04 1017 10 16.0934 0 0
2:15 am 02:15 Clear 44 6.5 42 5.3 92 92 Calm 30.05 1018 10 16.0934 0 0
2:35 am 02:35 Mostly Cloudy 43 6 41 4.9 93 93 Calm 30.04 1017 10 16.0934 0 0
2:55 am 02:55 Cloudy 44 6.5 41 5.2 92 92 Calm 30.04 1017 10 16.0934 0 0
3:15 am 03:15 Clear 43 6.2 41 5.1 93 93 Calm 30.04 1017 10 16.0934 0 0
3:35 am 03:35 Clear 43 6.3 41 5 91 91 N 3 6 30.04 1017 10 16.0934 0 0
3:55 am 03:55 Clear 42 5.7 41 4.8 94 94 NE 3 6 30.04 1017 10 16.0934 0 0
4:15 am 04:15 Clear 42 5.4 40 4.7 95 95 Calm 30.04 1017 10 16.0934 0 0
4:35 am 04:35 Clear 42 5.3 40 4.6 95 95 Calm 30.04 1017 10 16.0934 0 0
4:55 am 04:55 Clear 41 5.2 40 4.7 97 97 Calm 30.04 1017 10 16.0934 0 0
5:15 am 05:15 Clear 42 5.3 40 4.7 96 96 Calm 30.05 1018 10 16.0934 0 0
5:35 am 05:35 Clear 40 4.6 39 4 96 96 Calm 30.05 1018 10 16.0934 0 0
5:55 am 05:55 Cloudy 40 4.7 40 4.3 97 97 Calm 30.05 1018 10 16.0934 0 0
6:15 am 06:15 Cloudy 41 4.8 40 4.3 97 97 Calm 30.05 1018 10 16.0934 0 0
6:35 am 06:35 Cloudy 42 5.4 41 5 97 97 Calm 30.06 1018 10 16.0934 0 0
6:55 am 06:55 Cloudy 44 6.6 43 6 96 96 Calm 30.06 1018 10 16.0934 0 0
7:15 am 07:15 Cloudy 44 6.7 43 6 95 95 Calm 30.06 1018 10 16.0934 0 0
7:35 am 07:35 Cloudy 44 6.8 43 6 95 95 Calm 30.06 1018 10 16.0934 0 0
7:55 am 07:55 Cloudy 45 7.3 43 6.2 93 93 Calm 30.07 1018 7 11.26538 0 0
8:15 am 08:15 Cloudy 46 7.8 43 6.2 90 90 Calm 30.07 1018 10 16.0934 0 0
8:35 am 08:35 Cloudy 47 8.5 42 5.8 83 83 Calm 30.07 1018 10 16.0934 0 0
8:55 am 08:55 Cloudy 49 9.4 42 5.8 78 78 Calm 30.08 1019 10 16.0934 0 0
9:15 am 09:15 Cloudy 49 9.6 43 6.1 79 79 Calm 30.08 1019 10 16.0934 0 0
9:35 am 09:35 Cloudy 50 10.1 43 6 76 76 Calm 30.08 1019 10 16.0934 0 0
9:55 am 09:55 Cloudy 52 11 41 5 67 67 Calm 30.09 1019 10 16.0934 0 0
10:15 am 10:15 Cloudy 53 11.4 42 5.5 67 67 Calm 30.09 1019 10 16.0934 0 0
10:35 am 10:35 Cloudy 54 12.1 42 5.7 65 65 Calm 30.08 1019 10 16.0934 0 0
10:55 am 10:55 Mostly Cloudy 55 12.9 40 4.4 57 57 SW 5 7 30.08 1019 10 16.0934 0 0
11:15 am 11:15 Partly Cloudy 57 13.7 40 4.2 53 53 SSW 6 9 30.08 1019 10 16.0934 0 0
11:35 am 11:35 Cloudy 58 14.7 39 4 49 49 SSW 5 7 30.08 1019 10 16.0934 0 0
11:55 am 11:55 Mostly Cloudy 60 15.6 41 4.9 49 49 S 5 7 30.07 1018 10 16.0934 0 0
12:15 pm 12:15 Cloudy 62 16.4 40 4.3 45 45 SW 5 7 30.06 1018 10 16.0934 0 0
12:35 pm 12:35 Cloudy 63 17.4 42 5.6 46 46 SSW 6 9 30.05 1018 10 16.0934 0 0
12:55 pm 12:55 Cloudy 64 18 42 5.3 43 43 SSW 6 9 30.05 1018 10 16.0934 0 0
1:15 pm 13:15 Cloudy 65 18.6 42 5.7 43 43 S 5 7 30.04 1017 10 16.0934 0 0
1:35 pm 13:35 Mostly Cloudy 67 19.2 43 6 42 42 SSW 6 9 30.03 1017 10 16.0934 0 0
1:55 pm 13:55 Cloudy 67 19.7 42 5.6 40 40 SW 7 11 30.02 1016 10 16.0934 0 0
2:15 pm 14:15 Partly Cloudy 68 20.2 44 6.7 42 42 SSW 6 9 30 1016 10 16.0934 0 0
2:35 pm 14:35 Sunny 68 20 43 6.2 41 41 S 6 9 29.99 1016 10 16.0934 0 0
2:55 pm 14:55 Sunny 69 20.8 45 7 41 41 SW 3 6 29.99 1016 10 16.0934 0 0
3:15 pm 15:15 Sunny 71 21.5 45 7.1 39 39 SW 5 7 29.97 1015 10 16.0934 0 0
3:35 pm 15:35 Sunny 71 21.6 45 7.4 40 40 W 3 6 29.96 1015 10 16.0934 0 0
3:55 pm 15:55 Sunny 71 21.5 45 7.4 40 40 S 6 9 29.96 1015 10 16.0934 0 0
4:15 pm 16:15 Sunny 71 21.8 45 7.4 40 40 SW 6 9 29.95 1014 10 16.0934 0 0
4:35 pm 16:35 Sunny 70 21.1 45 7.1 40 40 SSW 6 9 29.95 1014 10 16.0934 0 0
4:55 pm 16:55 Mostly Cloudy 71 21.7 45 7.4 40 40 SW 7 11 29.95 1014 10 16.0934 0 0
5:15 pm 17:15 Cloudy 69 20.8 47 8.3 45 45 WSW 7 11 29.95 1014 10 16.0934 0 0
5:35 pm 17:35 Mostly Cloudy 70 21.3 46 8 43 43 SW 8 13 29.95 1014 10 16.0934 0 0
5:55 pm 17:55 Cloudy 69 20.5 48 8.8 47 47 W 7 11 29.95 1014 10 16.0934 0 0
6:15 pm 18:15 Mostly Cloudy 69 20.4 46 7.9 45 45 NNW 9 15 29.95 1014 10 16.0934 0 0
6:35 pm 18:35 Partly Cloudy 68 19.9 48 9.1 50 50 WNW 10 17 29.96 1015 10 16.0934 0 0
6:55 pm 18:55 Partly Cloudy 67 19.5 50 9.8 54 54 NW 10 17 29.97 1015 10 16.0934 0 0
7:15 pm 19:15 Cloudy 67 19.4 51 10.5 57 57 NNW 6 9 29.98 1015 10 16.0934 0 0
7:35 pm 19:35 Cloudy 66 19 50 10 56 56 NW 6 9 29.98 1015 10 16.0934 0 0
7:55 pm 19:55 Cloudy 66 18.8 50 10.2 58 58 NW 10 17 29.99 1015 10 16.0934 0 0
8:15 pm 20:15 Cloudy 65 18.2 51 10.5 61 61 NW 8 13 29.99 1016 10 16.0934 0 0
8:35 pm 20:35 Cloudy 64 18 51 10.5 62 62 NNW 6 9 30 1016 10 16.0934 0 0
8:55 pm 20:55 Partly Cloudy 63 17.2 52 10.9 67 67 NNW 14 22 30.01 1016 10 16.0934 0 0
9:15 pm 21:15 Cloudy 61 16.3 51 10.8 70 70 NNW 15 24 30.02 1017 10 16.0934 0 0
9:35 pm 21:35 Mostly Cloudy 59 15.2 51 10.4 73 73 N 8 13 30.03 1017 10 16.0934 0 0
9:55 pm 21:55 Cloudy 58 14.5 50 10.1 75 75 NNW 9 15 30.04 1017 10 16.0934 0 0
10:15 pm 22:15 Cloudy 57 14 49 9.6 75 75 N 10 17 30.04 1017 10 16.0934 0 0
10:35 pm 22:35 Cloudy 56 13.5 49 9.4 76 76 N 7 11 30.05 1018 10 16.0934 0 0
10:55 pm 22:55 Cloudy 55 12.9 48 8.9 77 77 N 8 13 30.05 1018 10 16.0934 0 0
11:15 pm 23:15 Cloudy 55 12.6 48 8.9 78 78 N 7 11 30.05 1018 10 16.0934 0 0
11:35 pm 23:35 Cloudy 53 11.9 47 8.3 79 79 N 10 17 30.06 1018 10 16.0934 0 0
11:55 pm 23:55 Cloudy 53 11.5 47 8.3 81 81 N 7 11 30.07 1018 10 16.0934 0 0

Powered by AerisWeather